Powrót do katalogu

DELTA 1 DEB

AktywnySSO
NORAD 18671·DEBRIS·🇺🇸 United States

Wystrzelony Nov 6, 1973 z Vandenberg Space Force Base

Loading…

Następne Przeloty (najbliższe 24 godziny)

TLE

ŚwieżeSource: Space-Track

Epoka: Sep 12, 2026, 09:03 UTC

1 18671U 73086GZ  26255.37742718  .00000098  00000-0  10459-2 0  9994
2 18671 101.8570 208.6562 0110009 212.1796 300.9569 12.39899229647233

Śledź DELTA 1 DEB w czasie rzeczywistym z AllMySat

Download on the App Store